Weather in Yekaterinovka

Russia / Ulyanovsk Oblast     54°03′50″N   48°30′57″E
temp.,
°C
wind,
m/s
gust,
m/s
humid.,
%
clouds,
%
prec.,
mm/h
press.,
hPa
HPBL,
m
13 april, tue
tue1301:00+6ese229886 0.0 103529
04:00+6se229645 0.0 103512
07:00+6se229573 0.0 103518
10:00+12sse357572 0.0 1035280
13:00+15sse465893 0.0 1034561
16:00+15sse465522 0.0 1033700
19:00+13se22729 0.0 103119
22:00+10sse22755 0.0 103216
14 april, wed
wed1401:00+9s33775 0.0 103121
04:00+7sse22755 0.0 103115
07:00+7se23755 0.0 103035
10:00+11se46735 0.0 1029352
13:00+14se46665 0.0 1028645
16:00+15se46572 0.0 1026742
19:00+13se23700 0.0 102437
22:00+10se22800 0.0 102423
15 april, thu
thu1501:00+9sse22850 0.0 102316
04:00+8sse22870 0.0 102314
07:00+8sse22880 0.0 102227
10:00+13se34630 0.0 1021349
13:00+16sse34495 0.0 1020944
16:00+17sse23450 0.0 10181327
19:00+14se22620 0.0 101813
22:00+11se11691 0.0 101810
16 april, fri
fri1601:00+10se117120 0.0 101710
04:00+9ne007563 0.0 101710
07:00+8nne117828 0.0 101710
10:00+12nne126697 0.0 1017196
13:00+10n1372100 0.0 1017122
16:00+13n366010 0.0 1017472
19:00+10n511834 0.0 1018322
22:00+6nne410938 0.0 1020277
17 april, sat
sat1701:00+4nne4109619 0.0 1021289
04:00+4nne399666 0.0 1021245
07:00+4nne410795 0.0 1023419
10:00+6nne69620 0.0 1023804
13:00+8nne79440 0.0 10241149
16:00+8nne710430 0.0 10251287
19:00+5nne711460 0.0 1027933
22:00+2nne513535 0.0 1028570